Richmond, VA

9:55 PM EST on December 14, 2019 (GMT -0500)
Richmond International

Weather History for KRIC - October, 2019

Change the Weather History Date:

Saturday, October 19, 2019

  Actual Average Record
Temperature  
Mean Temperature 52 °F 58 °F  
Max Temperature 66 °F 70 °F 87 °F (1938)
Min Temperature 38 °F 47 °F 28 °F (1976)
Degree Days  
Heating Degree Days 12 7  
Month to date heating degree days 61 97  
Since 1 July heating degree days 61 126  
Cooling Degree Days 0 1  
Month to date cooling degree days 70 32  
Year to date cooling degree days 2040 1536  
Growing Degree Days 2 (Base 50)    
Moisture  
Dew Point 41 °F    
Average Humidity 68    
Maximum Humidity 93    
Minimum Humidity 37    
Precipitation  
Precipitation 0.00 in 0.10 in 2.83 in (1966)
Month to date precipitation 2.02 1.82  
Year to date precipitation 35.17 35.94  
Snow  
Snow 0.00 in 0.00 in T in (1972)
Month to date snowfall 0.0 0.0  
Since 1 July snowfall 0.0 0.0  
Snow Depth 0.00 in    
Sea Level Pressure  
Sea Level Pressure 30.08 in    
Wind  
Wind Speed 2 mph ()    
Max Wind Speed 10 mph    
Max Gust Speed 14 mph    
Visibility 10.0 miles    
Events      
T = Trace of Precipitation, MM = Missing Value Source: Averaged Metar Reports

Daily Weather History Graph

Daily Weather History Graph

Search for Another Location

Airport or City:

Astronomy

Oct. 19, 2019 Rise Set
Actual Time 7:20 AM EDT 6:26 PM EDT
Civil Twilight 6:54 AM EDT 6:53 PM EDT
Nautical Twilight 6:24 AM EDT 7:23 PM EDT
Astronomical Twilight 5:53 AM EDT 7:54 PM EDT
Moon 10:38 PM EDT (10/19) 12:46 PM EDT (10/19)
Length of Visible Light 11h 58m
Length of Day
11h 06m
Waning Gibbous, 70% of the Moon is Illuminated
Oct 19
Waning Gibbous
Oct 21
Last Quarter
Oct 27
New
Nov 4
First Quarter
Nov 12
Full

Hourly Weather History & Observations

Time (EDT) Temp. Windchill Dew Point Humidity Pressure Visibility Wind Dir Wind Speed Gust Speed Precip Events Conditions
12:54 AM 45.0 °F - 37.9 °F 76% 30.08 in 10.0 mi Calm Calm - N/A   Clear
1:54 AM 42.1 °F - 39.0 °F 89% 30.09 in 10.0 mi Calm Calm - N/A   Clear
2:54 AM 42.1 °F - 37.0 °F 82% 30.09 in 10.0 mi Calm Calm - N/A   Clear
3:54 AM 41.0 °F - 37.0 °F 86% 30.10 in 10.0 mi Calm Calm - N/A   Clear
4:54 AM 39.9 °F - 36.0 °F 86% 30.11 in 10.0 mi Calm Calm - N/A   Clear
5:54 AM 39.9 °F - 37.0 °F 89% 30.11 in 10.0 mi Calm Calm - N/A   Clear
6:54 AM 39.0 °F 36.8 °F 37.0 °F 93% 30.12 in 10.0 mi North 3.5 mph - N/A   Partly Cloudy
7:54 AM 39.9 °F - 37.0 °F 89% 30.13 in 10.0 mi Calm Calm - N/A   Partly Cloudy
8:54 AM 46.9 °F - 41.0 °F 80% 30.14 in 10.0 mi North 5.8 mph - N/A   Partly Cloudy
9:54 AM 53.1 °F - 43.0 °F 69% 30.14 in 10.0 mi ENE 4.6 mph - N/A   Mostly Cloudy
10:54 AM 57.0 °F - 44.1 °F 62% 30.14 in 10.0 mi ESE 3.5 mph - N/A   Mostly Cloudy
11:54 AM 61.0 °F - 41.0 °F 48% 30.14 in 10.0 mi SSE 5.8 mph - N/A   Mostly Cloudy
12:54 PM 64.0 °F - 42.1 °F 45% 30.13 in 10.0 mi Variable 4.6 mph - N/A   Mostly Cloudy
1:54 PM 64.0 °F - 39.9 °F 41% 30.10 in 10.0 mi SSW 6.9 mph - N/A   Mostly Cloudy
2:54 PM 66.0 °F - 39.0 °F 37% 30.07 in 10.0 mi WSW 4.6 mph - N/A   Mostly Cloudy
3:54 PM 66.9 °F - 41.0 °F 39% 30.06 in 10.0 mi Variable 5.8 mph - N/A   Mostly Cloudy
4:54 PM 64.9 °F - 39.9 °F 40% 30.05 in 10.0 mi SSW 5.8 mph - N/A   Mostly Cloudy
5:54 PM 63.0 °F - 42.1 °F 46% 30.05 in 10.0 mi SE 4.6 mph - N/A   Mostly Cloudy
6:54 PM 57.9 °F - 45.0 °F 62% 30.04 in 10.0 mi SE 3.5 mph - N/A   Mostly Cloudy
7:54 PM 57.0 °F - 46.0 °F 67% 30.03 in 10.0 mi ESE 3.5 mph - N/A   Overcast
8:54 PM 55.0 °F - 46.9 °F 74% 30.03 in 10.0 mi SE 5.8 mph - N/A   Overcast
9:54 PM 54.0 °F - 46.9 °F 77% 30.03 in 10.0 mi East 4.6 mph - N/A   Mostly Cloudy
10:54 PM 55.0 °F - 48.0 °F 77% 30.03 in 10.0 mi Calm Calm - N/A   Overcast
11:54 PM 55.9 °F - 48.9 °F 77% 30.02 in 10.0 mi Calm Calm - N/A   Overcast